Previsão horária em Abaza

Hoje, 19 Janeiro, Terça-feira

Tempo Temperatura Precipitação Vento Pressão Humidade
00:00 -9°C° 0 mm 4 m/s 714 mmHg 90%
01:00 -8°C° 0 mm 3 m/s 714 mmHg 90%
02:00 -9°C° 0 mm 3 m/s 714 mmHg 89%
03:00 -9°C° 0 mm 3 m/s 714 mmHg 88%
04:00 -10°C° 0 mm 3 m/s 715 mmHg 88%
05:00 -10°C° 0 mm 2 m/s 715 mmHg 88%
06:00 -10°C° 0 mm 2 m/s 715 mmHg 89%
07:00 -12°C° 0 mm 2 m/s 715 mmHg 89%
08:00 -12°C° 0 mm 2 m/s 716 mmHg 90%
09:00 -10°C° 0 mm 1 m/s 716 mmHg 90%
10:00 -9°C° 0 mm 2 m/s 716 mmHg 87%
11:00 -9°C° 0 mm 3 m/s 716 mmHg 85%
12:00 -8°C° 0 mm 3 m/s 717 mmHg 83%
13:00 -8°C° 0.1 mm 3 m/s 717 mmHg 84%
14:00 -8°C° 0.1 mm 3 m/s 717 mmHg 85%
15:00 -9°C° 0.1 mm 3 m/s 717 mmHg 86%
16:00 -10°C° 0 mm 3 m/s 717 mmHg 87%
17:00 -12°C° 0 mm 2 m/s 718 mmHg 89%
18:00 -13°C° 0 mm 2 m/s 718 mmHg 90%
19:00 -14°C° 0 mm 2 m/s 718 mmHg 90%
20:00 -15°C° 0 mm 2 m/s 718 mmHg 90%
21:00 -15°C° 0 mm 2 m/s 718 mmHg 90%
22:00 -16°C° 0 mm 2 m/s 718 mmHg 90%
23:00 -14°C° 0 mm 1 m/s 718 mmHg 89%

Amanhã, 20 Janeiro, Quarta-feira

Tempo Temperatura Precipitação Vento Pressão Humidade
00:00 -14°C° 0 mm 1 m/s 718 mmHg 89%
01:00 -15°C° 0 mm 1 m/s 718 mmHg 89%
02:00 -15°C° 0 mm 1 m/s 718 mmHg 89%
03:00 -15°C° 0 mm 1 m/s 719 mmHg 89%
04:00 -16°C° 0 mm 1 m/s 719 mmHg 89%
05:00 -16°C° 0 mm 1 m/s 720 mmHg 89%
06:00 -17°C° 0 mm 1 m/s 721 mmHg 89%
07:00 -16°C° 0 mm 1 m/s 721 mmHg 88%
08:00 -16°C° 0 mm 1 m/s 722 mmHg 88%
09:00 -16°C° 0 mm 1 m/s 722 mmHg 87%
10:00 -14°C° 0 mm 1 m/s 722 mmHg 85%
11:00 -12°C° 0 mm 0 m/s 722 mmHg 82%
12:00 -10°C° 0 mm 0 m/s 722 mmHg 79%
13:00 -10°C° 0 mm 0 m/s 722 mmHg 83%
14:00 -11°C° 0 mm 0 m/s 722 mmHg 87%
15:00 -11°C° 0 mm 1 m/s 722 mmHg 91%
16:00 -13°C° 0 mm 1 m/s 722 mmHg 93%
17:00 -15°C° 0 mm 0 m/s 722 mmHg 94%
18:00 -17°C° 0 mm 0 m/s 722 mmHg 96%
19:00 -17°C° 0 mm 0 m/s 722 mmHg 95%
20:00 -17°C° 0 mm 0 m/s 722 mmHg 95%
21:00 -17°C° 0 mm 0 m/s 722 mmHg 94%
22:00 -17°C° 0 mm 0 m/s 722 mmHg 95%
23:00 -17°C° 0 mm 0 m/s 722 mmHg 96%

Depois de amanhã, 21 Janeiro, Quinta-feira

Tempo Temperatura Precipitação Vento Pressão Humidade
00:00 -17°C° 0 mm 0 m/s 721 mmHg 96%
01:00 -16°C° 0 mm 0 m/s 721 mmHg 96%
02:00 -16°C° 0 mm 0 m/s 721 mmHg 97%
03:00 -15°C° 0 mm 1 m/s 721 mmHg 97%
04:00 -15°C° 0.1 mm 0 m/s 720 mmHg 97%
05:00 -14°C° 0.1 mm 0 m/s 720 mmHg 97%
06:00 -14°C° 0.1 mm 0 m/s 720 mmHg 97%
07:00 -12°C° 0.4 mm 0 m/s 720 mmHg 97%
08:00 -11°C° 0.4 mm 0 m/s 720 mmHg 96%
09:00 -9°C° 0.4 mm 0 m/s 720 mmHg 95%
10:00 -7°C° 0.1 mm 0 m/s 720 mmHg 94%
11:00 -4°C° 0.1 mm 1 m/s 720 mmHg 93%
12:00 -1°C° 0.1 mm 1 m/s 719 mmHg 92%
13:00 -1°C° 0.1 mm 1 m/s 719 mmHg 93%
14:00 0°C° 0.1 mm 1 m/s 719 mmHg 93%
15:00 0°C° 0.1 mm 1 m/s 719 mmHg 94%
16:00 -1°C° 0.1 mm 1 m/s 719 mmHg 94%
17:00 -2°C° 0.1 mm 1 m/s 718 mmHg 95%
18:00 -3°C° 0.1 mm 1 m/s 718 mmHg 95%
19:00 -3°C° 0 mm 1 m/s 718 mmHg 95%
20:00 -3°C° 0 mm 1 m/s 718 mmHg 95%
21:00 -3°C° 0 mm 1 m/s 717 mmHg 95%
22:00 -3°C° 0 mm 1 m/s 717 mmHg 94%
23:00 -4°C° 0 mm 1 m/s 716 mmHg 94%

22 Janeiro, Sexta-feira

Tempo Temperatura Precipitação Vento Pressão Humidade
00:00 -4°C° 0 mm 1 m/s 715 mmHg 93%
01:00 -4°C° 0 mm 1 m/s 714 mmHg 92%
02:00 -6°C° 0 mm 1 m/s 714 mmHg 90%
03:00 -6°C° 0 mm 1 m/s 713 mmHg 89%
04:00 -6°C° 0 mm 1 m/s 713 mmHg 88%
05:00 -6°C° 0 mm 1 m/s 712 mmHg 87%
06:00 -6°C° 0 mm 1 m/s 711 mmHg 85%
07:00 -4°C° 0 mm 1 m/s 711 mmHg 85%
08:00 -4°C° 0 mm 1 m/s 711 mmHg 84%
09:00 -4°C° 0 mm 1 m/s 710 mmHg 84%
10:00 -2°C° 0 mm 1 m/s 710 mmHg 84%
11:00 -1°C° 0 mm 1 m/s 710 mmHg 84%
12:00 +1°C° 0 mm 1 m/s 709 mmHg 84%
13:00 -1°C° 0.3 mm 2 m/s 710 mmHg 86%
14:00 -1°C° 0.3 mm 3 m/s 710 mmHg 87%
15:00 -3°C° 0.3 mm 4 m/s 711 mmHg 88%
16:00 -4°C° 0.1 mm 3 m/s 712 mmHg 88%
17:00 -5°C° 0.1 mm 3 m/s 712 mmHg 89%
18:00 -6°C° 0.1 mm 2 m/s 713 mmHg 89%
19:00 -7°C° 0.1 mm 2 m/s 713 mmHg 90%
20:00 -8°C° 0.1 mm 2 m/s 713 mmHg 91%
21:00 -8°C° 0.1 mm 1 m/s 714 mmHg 92%
22:00 -8°C° 0.1 mm 1 m/s 714 mmHg 93%
23:00 -8°C° 0.1 mm 1 m/s 714 mmHg 93%

23 Janeiro, Sábado

Tempo Temperatura Precipitação Vento Pressão Humidade
00:00 -9°C° 0.1 mm 1 m/s 714 mmHg 94%
01:00 -9°C° 0.2 mm 1 m/s 715 mmHg 94%
02:00 -9°C° 0.2 mm 1 m/s 715 mmHg 95%
03:00 -9°C° 0.2 mm 1 m/s 716 mmHg 95%
04:00 -9°C° 0.1 mm 1 m/s 716 mmHg 94%
05:00 -10°C° 0.1 mm 1 m/s 717 mmHg 93%
06:00 -13°C° 0.1 mm 2 m/s 718 mmHg 92%
07:00 -11°C° 0 mm 1 m/s 718 mmHg 92%
08:00 -12°C° 0 mm 1 m/s 719 mmHg 92%
09:00 -13°C° 0 mm 1 m/s 720 mmHg 92%
10:00 -12°C° 0 mm 1 m/s 720 mmHg 90%
11:00 -11°C° 0 mm 1 m/s 720 mmHg 88%
12:00 -12°C° 0 mm 2 m/s 720 mmHg 86%
13:00 -12°C° 0 mm 2 m/s 720 mmHg 86%
14:00 -12°C° 0 mm 2 m/s 720 mmHg 86%
15:00 -12°C° 0 mm 2 m/s 720 mmHg 86%
16:00 -11°C° 0 mm 1 m/s 720 mmHg 88%
17:00 -12°C° 0 mm 1 m/s 720 mmHg 91%
18:00 -13°C° 0 mm 0 m/s 720 mmHg 93%
19:00 -13°C° 0.1 mm 0 m/s 720 mmHg 94%
20:00 -13°C° 0.1 mm 0 m/s 720 mmHg 95%
21:00 -13°C° 0.1 mm 0 m/s 720 mmHg 96%
22:00 -13°C° 0.1 mm 0 m/s 721 mmHg 96%
23:00 -14°C° 0.1 mm 0 m/s 721 mmHg 96%

24 Janeiro, Domingo

Tempo Temperatura Precipitação Vento Pressão Humidade
00:00 -14°C° 0.1 mm 0 m/s 722 mmHg 96%
01:00 -14°C° 0.1 mm 1 m/s 722 mmHg 96%
02:00 -15°C° 0.1 mm 1 m/s 722 mmHg 95%
03:00 -15°C° 0.1 mm 1 m/s 722 mmHg 95%
04:00 -15°C° 0 mm 1 m/s 722 mmHg 92%
05:00 -16°C° 0 mm 1 m/s 722 mmHg 90%
06:00 -19°C° 0 mm 2 m/s 722 mmHg 87%
07:00 -18°C° 0.1 mm 2 m/s 723 mmHg 87%
08:00 -18°C° 0.1 mm 3 m/s 724 mmHg 88%
09:00 -18°C° 0.1 mm 4 m/s 724 mmHg 88%
10:00 -18°C° 0 mm 4 m/s 725 mmHg 83%
11:00 -19°C° 0 mm 4 m/s 725 mmHg 78%
12:00 -19°C° 0 mm 4 m/s 726 mmHg 73%
13:00 -19°C° 0 mm 4 m/s 726 mmHg 74%
14:00 -18°C° 0 mm 3 m/s 726 mmHg 75%
15:00 -18°C° 0 mm 3 m/s 727 mmHg 76%
16:00 -21°C° 0 mm 3 m/s 727 mmHg 81%
17:00 -20°C° 0 mm 2 m/s 728 mmHg 87%
18:00 -21°C° 0 mm 2 m/s 728 mmHg 92%
19:00 -23°C° 0 mm 2 m/s 729 mmHg 93%
20:00 -20°C° 0 mm 1 m/s 729 mmHg 94%
21:00 -21°C° 0 mm 1 m/s 729 mmHg 95%
22:00 -21°C° 0 mm 1 m/s 729 mmHg 94%
23:00 -22°C° 0 mm 1 m/s 730 mmHg 93%
Mostrar mais